Location: ?????????
(41.2393°N, 22.9479°E)
Time: 04:50:11
(UTC+00:00)

Okean 2 Rocket - Pass Details

Date: 17 November 2025
Orbit: 611 x 635 km, 82.5° (Epoch: 09 December)

Event Time Altitude Azimuth Distance (km) Brightness Sun altitude
Rises 16:50:20 0° 186° (S) 2,887 6.7 -19.3°
Reaches altitude 10° 16:52:33 10° 186° (S) 1,981 5.8 -19.7°
Maximum altitude 16:56:57 89° 96° (E) 624 2.9 -20.5°
Enters shadow 17:00:31 15° 8° (N) 1,654 5.1 -21.2°
